When you browse on this site, cookies collect data to enhance your experience and personalize the content and advertising you see.
Visit our Privacy Policy to learn more. By continuing to use the site, you agree to this use of cookies and data.
  • In Denmark
  • List of Countries
  • For 7 days
  • Water Temperature
  • Satellite Maps
  • Weather Map
  • Weather Widgets
  • user-avatar
    Login

    Hourly Weather Belbulak

    Today, 16 December, Sunday

    Time Temperature Precipitation Wind Pressure Humidity
    00:00 +4°C° 0 mm 4 mps 696 mmHg 57%
    01:00 +4°C° 0 mm 4 mps 696 mmHg 55%
    02:00 +4°C° 0 mm 4 mps 696 mmHg 53%
    03:00 +4°C° 0 mm 4 mps 696 mmHg 53%
    04:00 +4°C° 0 mm 4 mps 696 mmHg 53%
    05:00 +4°C° 0 mm 4 mps 696 mmHg 53%
    06:00 +4°C° 0 mm 3 mps 696 mmHg 54%
    07:00 +4°C° 0 mm 3 mps 697 mmHg 55%
    08:00 +4°C° 0 mm 2 mps 697 mmHg 57%
    09:00 +4°C° 0 mm 3 mps 697 mmHg 57%
    10:00 +5°C° 0 mm 3 mps 698 mmHg 58%
    11:00 +6°C° 0 mm 4 mps 699 mmHg 58%
    12:00 +5°C° 0.1 mm 3 mps 699 mmHg 65%
    13:00 +6°C° 0.1 mm 2 mps 699 mmHg 71%
    14:00 +5°C° 0.1 mm 2 mps 699 mmHg 78%
    15:00 +4°C° 0.2 mm 2 mps 700 mmHg 82%
    16:00 +4°C° 0.2 mm 1 mps 701 mmHg 86%
    17:00 +3°C° 0.2 mm 1 mps 702 mmHg 90%
    18:00 +3°C° 0.3 mm 1 mps 702 mmHg 91%
    19:00 +3°C° 0.3 mm 1 mps 703 mmHg 91%
    20:00 +3°C° 0.3 mm 1 mps 703 mmHg 92%
    21:00 +2°C° 0.1 mm 1 mps 703 mmHg 91%
    22:00 +2°C° 0.1 mm 1 mps 703 mmHg 90%
    23:00 +1°C° 0.1 mm 1 mps 703 mmHg 89%

    Tomorrow, 17 December, Monday

    Time Temperature Precipitation Wind Pressure Humidity
    00:00 +1°C° 0 mm 1 mps 703 mmHg 88%
    01:00 -1°C° 0 mm 2 mps 703 mmHg 88%
    02:00 -1°C° 0 mm 2 mps 703 mmHg 87%
    03:00 -1°C° 0 mm 2 mps 703 mmHg 86%
    04:00 -1°C° 0 mm 2 mps 703 mmHg 84%
    05:00 -1°C° 0 mm 2 mps 702 mmHg 83%
    06:00 -1°C° 0 mm 2 mps 702 mmHg 81%
    07:00 -1°C° 0 mm 3 mps 702 mmHg 80%
    08:00 0°C° 0 mm 3 mps 702 mmHg 78%
    09:00 +1°C° 0 mm 3 mps 701 mmHg 76%
    10:00 +1°C° 0 mm 4 mps 701 mmHg 74%
    11:00 +3°C° 0 mm 4 mps 700 mmHg 72%
    12:00 +3°C° 0.1 mm 4 mps 700 mmHg 73%
    13:00 +3°C° 0.1 mm 4 mps 699 mmHg 74%
    14:00 +3°C° 0.1 mm 4 mps 698 mmHg 76%
    15:00 +1°C° 0.1 mm 4 mps 698 mmHg 78%
    16:00 +2°C° 0.1 mm 3 mps 699 mmHg 80%
    17:00 +1°C° 0.1 mm 3 mps 699 mmHg 82%
    18:00 +1°C° 0.1 mm 3 mps 699 mmHg 82%
    19:00 +1°C° 0.1 mm 3 mps 699 mmHg 81%
    20:00 +1°C° 0.1 mm 3 mps 698 mmHg 80%
    21:00 +1°C° 0.1 mm 3 mps 698 mmHg 79%
    22:00 +1°C° 0.1 mm 3 mps 698 mmHg 78%
    23:00 +2°C° 0.1 mm 3 mps 698 mmHg 76%

    Day after tomorrow, 18 December, Tuesday

    Time Temperature Precipitation Wind Pressure Humidity
    00:00 +2°C° 0.2 mm 3 mps 697 mmHg 75%
    01:00 +2°C° 0.2 mm 3 mps 697 mmHg 74%
    02:00 +2°C° 0.2 mm 3 mps 697 mmHg 73%
    03:00 +1°C° 0.2 mm 4 mps 696 mmHg 71%
    04:00 +1°C° 0.2 mm 4 mps 696 mmHg 70%
    05:00 +1°C° 0.2 mm 4 mps 695 mmHg 68%
    06:00 +1°C° 0.2 mm 4 mps 695 mmHg 68%
    07:00 +2°C° 0.2 mm 5 mps 695 mmHg 67%
    08:00 +2°C° 0.2 mm 5 mps 694 mmHg 66%
    09:00 +2°C° 0.2 mm 5 mps 694 mmHg 65%
    10:00 +3°C° 0.2 mm 5 mps 693 mmHg 63%
    11:00 +5°C° 0.2 mm 5 mps 693 mmHg 62%
    12:00 +4°C° 0.2 mm 4 mps 693 mmHg 65%
    13:00 +4°C° 0.2 mm 4 mps 693 mmHg 69%
    14:00 +3°C° 0.2 mm 3 mps 693 mmHg 72%
    15:00 +2°C° 0.6 mm 3 mps 694 mmHg 78%
    16:00 +1°C° 0.6 mm 3 mps 695 mmHg 85%
    17:00 -1°C° 0.6 mm 4 mps 696 mmHg 91%
    18:00 -1°C° 0.2 mm 3 mps 696 mmHg 88%
    19:00 -1°C° 0.2 mm 3 mps 697 mmHg 86%
    20:00 -2°C° 0.2 mm 2 mps 697 mmHg 83%
    21:00 -2°C° 0 mm 2 mps 697 mmHg 81%
    22:00 -3°C° 0 mm 2 mps 697 mmHg 79%
    23:00 -4°C° 0 mm 2 mps 697 mmHg 76%

    19 December, Wednesday

    Time Temperature Precipitation Wind Pressure Humidity
    00:00 -4°C° 0 mm 2 mps 697 mmHg 72%
    01:00 -4°C° 0 mm 2 mps 697 mmHg 67%
    02:00 -4°C° 0 mm 2 mps 697 mmHg 62%
    03:00 -4°C° 0 mm 2 mps 697 mmHg 59%
    04:00 -4°C° 0 mm 2 mps 697 mmHg 56%
    05:00 -4°C° 0 mm 2 mps 697 mmHg 53%
    06:00 -4°C° 0 mm 2 mps 697 mmHg 56%
    07:00 -4°C° 0 mm 2 mps 697 mmHg 59%
    08:00 -3°C° 0 mm 2 mps 697 mmHg 61%
    09:00 -2°C° 0 mm 2 mps 697 mmHg 65%
    10:00 -2°C° 0 mm 2 mps 697 mmHg 70%
    11:00 -1°C° 0 mm 2 mps 697 mmHg 74%
    12:00 -1°C° 0.1 mm 2 mps 697 mmHg 76%
    13:00 +1°C° 0.1 mm 2 mps 697 mmHg 78%
    14:00 +1°C° 0.1 mm 2 mps 697 mmHg 81%
    15:00 -1°C° 0.1 mm 2 mps 697 mmHg 83%
    16:00 -2°C° 0.1 mm 2 mps 698 mmHg 86%
    17:00 -2°C° 0.1 mm 2 mps 698 mmHg 89%
    18:00 -2°C° 0.1 mm 2 mps 698 mmHg 88%
    19:00 -2°C° 0.1 mm 2 mps 699 mmHg 88%
    20:00 0°C° 0.1 mm 1 mps 699 mmHg 88%
    21:00 0°C° 0.1 mm 1 mps 699 mmHg 87%
    22:00 0°C° 0.1 mm 1 mps 699 mmHg 87%
    23:00 -1°C° 0.1 mm 1 mps 699 mmHg 86%

    20 December, Thursday

    Time Temperature Precipitation Wind Pressure Humidity
    00:00 -1°C° 0.1 mm 1 mps 699 mmHg 86%
    01:00 -1°C° 0.1 mm 1 mps 700 mmHg 86%
    02:00 -1°C° 0.1 mm 1 mps 700 mmHg 85%
    03:00 -1°C° 0.1 mm 1 mps 700 mmHg 85%
    04:00 -1°C° 0.1 mm 1 mps 700 mmHg 85%
    05:00 -1°C° 0.1 mm 1 mps 700 mmHg 85%
    06:00 -1°C° 0.2 mm 1 mps 701 mmHg 85%
    07:00 -1°C° 0.2 mm 1 mps 701 mmHg 85%
    08:00 -1°C° 0.2 mm 1 mps 701 mmHg 84%
    09:00 0°C° 0.2 mm 1 mps 701 mmHg 82%
    10:00 +1°C° 0.2 mm 1 mps 701 mmHg 80%
    11:00 +1°C° 0.2 mm 1 mps 702 mmHg 78%
    12:00 -1°C° 0.2 mm 2 mps 701 mmHg 78%
    13:00 +1°C° 0.2 mm 2 mps 701 mmHg 78%
    14:00 +1°C° 0.2 mm 2 mps 701 mmHg 78%
    15:00 -1°C° 0.1 mm 2 mps 701 mmHg 80%
    16:00 -2°C° 0.1 mm 2 mps 701 mmHg 82%
    17:00 0°C° 0.1 mm 1 mps 701 mmHg 85%
    18:00 -2°C° 0.1 mm 2 mps 701 mmHg 84%
    19:00 -2°C° 0.1 mm 2 mps 701 mmHg 84%
    20:00 -3°C° 0.1 mm 2 mps 701 mmHg 83%
    21:00 -3°C° 0.1 mm 2 mps 701 mmHg 82%
    22:00 -3°C° 0.1 mm 2 mps 701 mmHg 81%
    23:00 -3°C° 0.1 mm 2 mps 701 mmHg 80%

    21 December, Friday

    Time Temperature Precipitation Wind Pressure Humidity
    00:00 -3°C° 0.1 mm 2 mps 700 mmHg 80%
    01:00 -3°C° 0.1 mm 2 mps 700 mmHg 79%
    02:00 -3°C° 0.1 mm 2 mps 700 mmHg 78%
    03:00 -3°C° 0.1 mm 2 mps 700 mmHg 77%
    04:00 -3°C° 0.1 mm 2 mps 700 mmHg 76%
    05:00 -3°C° 0.1 mm 2 mps 699 mmHg 75%
    06:00 -2°C° 0.1 mm 3 mps 699 mmHg 74%
    07:00 -2°C° 0.1 mm 3 mps 699 mmHg 73%
    08:00 -2°C° 0.1 mm 3 mps 699 mmHg 73%
    09:00 -1°C° 0.1 mm 3 mps 699 mmHg 71%
    10:00 0°C° 0.1 mm 3 mps 698 mmHg 69%
    11:00 +1°C° 0.1 mm 3 mps 698 mmHg 67%
    12:00 +1°C° 0.1 mm 3 mps 697 mmHg 67%
    13:00 +1°C° 0.1 mm 3 mps 697 mmHg 67%
    14:00 +1°C° 0.1 mm 3 mps 696 mmHg 66%
    15:00 0°C° 0 mm 3 mps 696 mmHg 68%
    16:00 -1°C° 0 mm 3 mps 696 mmHg 69%
    17:00 -2°C° 0 mm 3 mps 696 mmHg 71%
    18:00 -2°C° 0 mm 3 mps 696 mmHg 68%
    19:00 -2°C° 0 mm 3 mps 695 mmHg 66%
    20:00 -2°C° 0 mm 3 mps 695 mmHg 64%
    21:00 -2°C° 0 mm 3 mps 695 mmHg 63%
    22:00 -2°C° 0 mm 3 mps 694 mmHg 62%
    23:00 -2°C° 0 mm 3 mps 694 mmHg 61%
    Show more